Terug naar catalogus

STARLINK-32435

ActiefCommunicatieVLEO
NORAD 61259·PAYLOAD·🇺🇸 United States

Gelanceerd Sep 25, 2024 vanaf Vandenberg Space Force Base

Loading…

Volgende Passages (komende 24 uur)

TLE

VersSource: CelesTrak SupGP

Epoch: Sep 14, 2026, 21:03 UTC

1 61259C 24175S   26257.87756944  .00037838  00000+0  11182-2 0  2574
2 61259  53.1603  31.7001 0001212  71.2131 146.0518 15.34363370    17

Volg STARLINK-32435 in realtime met AllMySat

Download on the App Store